Danville, VA

7:55 AM EDT on April 24, 2018 (GMT -0400)
Danville Regional

Weather History for KDAN - August, 2012

Change the Weather History Date:

Thursday, August 9, 2012

  Actual Average Record
Temperature  
Mean Temperature 78 °F 78 °F  
Max Temperature 92 °F 87 °F 102 °F (2007)
Min Temperature 64 °F 69 °F 46 °F (1989)
Degree Days  
Heating Degree Days 0 0  
Month to date heating degree days 0 0  
Since 1 June heating degree days 3 3  
Since 1 July heating degree days 0 0  
Cooling Degree Days 13 13  
Month to date cooling degree days 142 117  
Year to date cooling degree days 1139 970  
Since 1 June cooling degree days 940 826  
Growing Degree Days 27 (Base 50)    
Moisture  
Dew Point 68 °F    
Average Humidity 73    
Maximum Humidity 93    
Minimum Humidity 52    
Precipitation  
Precipitation 0.03 in 0.12 in 2.05 in (2014)
Month to date precipitation 0.29 1.12  
Year to date precipitation 18.93 27.44  
Snow  
Snow 0.00 in - - ()
Month to date snowfall 0.0  
Since 1 June snowfall 0.0  
Since 1 July snowfall 0.0  
Snow Depth 0.00 in    
Sea Level Pressure  
Sea Level Pressure 29.92 in    
Wind  
Wind Speed 4 mph (SSW)    
Max Wind Speed 12 mph    
Max Gust Speed 17 mph    
Visibility 10 miles    
Events      
T = Trace of Precipitation, MM = Missing Value Source: NWS Daily Summary

Daily Weather History Graph

Daily Weather History Graph

Search for Another Location

Airport or City:

Astronomy

Aug. 09, 2012 Rise Set
Actual Time 6:30 AM EDT 8:14 PM EDT
Civil Twilight 6:02 AM EDT 8:42 PM EDT
Nautical Twilight 5:28 AM EDT 9:15 PM EDT
Astronomical Twilight 4:53 AM EDT 9:51 PM EDT
Moon No Moon Rise 1:55 PM EDT (8/9)
Length of Visible Light 14h 39m
Length of Day
13h 44m
Waning Gibbous, 51% of the Moon is Illuminated
Aug 9
Waning Gibbous
Aug 9
Last Quarter
Aug 17
New
Aug 24
First Quarter
Aug 31
Full

Hourly Weather History & Observations

Time (EDT) Temp. Heat Index Dew Point Humidity Pressure Visibility Wind Dir Wind Speed Gust Speed Precip Events Conditions
12:53 AM 66.9 °F - 64.0 °F 90% 29.96 in 10.0 mi Calm Calm - N/A   Clear
1:53 AM 66.0 °F - 63.0 °F 90% 29.95 in 6.0 mi Calm Calm - N/A   Clear
2:53 AM 64.9 °F - 63.0 °F 93% 29.95 in 7.0 mi Calm Calm - N/A   Clear
3:53 AM 64.9 °F - 62.1 °F 90% 29.94 in 9.0 mi Calm Calm - N/A   Clear
4:53 AM 66.0 °F - 63.0 °F 90% 29.96 in 9.0 mi Calm Calm - N/A   Clear
5:53 AM 66.0 °F - 63.0 °F 90% 29.97 in 9.0 mi Calm Calm - N/A   Clear
6:53 AM 66.0 °F - 63.0 °F 90% 29.98 in 8.0 mi WSW 4.6 mph - N/A   Clear
7:53 AM 69.1 °F - 66.0 °F 90% 29.98 in 10.0 mi Calm Calm - 0.01 in   Clear
8:32 AM 71.6 °F - 66.2 °F 83% 30.01 in 10.0 mi Calm Calm - N/A   Partly Cloudy
8:53 AM 73.0 °F - 68.0 °F 84% 29.98 in 10.0 mi SSW 4.6 mph - N/A   Clear
9:53 AM 78.1 °F - 70.0 °F 76% 29.97 in 10.0 mi Calm Calm - N/A   Clear
10:53 AM 82.9 °F 88.0 °F 72.0 °F 69% 29.96 in 10.0 mi SW 5.8 mph - N/A   Clear
11:53 AM 86.0 °F 92.2 °F 72.0 °F 63% 29.95 in 10.0 mi West 5.8 mph - N/A   Clear
12:53 PM 89.1 °F 94.1 °F 70.0 °F 53% 29.94 in 10.0 mi SW 11.5 mph - N/A   Partly Cloudy
1:53 PM 89.1 °F 93.7 °F 69.1 °F 52% 29.91 in 10.0 mi SW 6.9 mph - N/A   Partly Cloudy
2:53 PM 90.0 °F 94.5 °F 69.1 °F 50% 29.89 in 10.0 mi Variable 5.8 mph - N/A   Partly Cloudy
3:53 PM 89.1 °F 94.1 °F 70.0 °F 53% 29.88 in 10.0 mi South 8.1 mph - N/A   Partly Cloudy
4:53 PM 89.1 °F 93.7 °F 69.1 °F 52% 29.86 in 10.0 mi Variable 5.8 mph - N/A   Partly Cloudy
5:53 PM 87.1 °F 91.3 °F 69.1 °F 55% 29.85 in 10.0 mi South 8.1 mph 16.1 mph N/A   Clear
6:53 PM 84.9 °F 89.4 °F 70.0 °F 61% 29.86 in 10.0 mi South 3.5 mph - N/A   Clear
7:53 PM 82.0 °F 85.9 °F 70.0 °F 67% 29.85 in 10.0 mi SSW 3.5 mph - N/A   Clear
8:53 PM 80.1 °F 83.2 °F 70.0 °F 71% 29.85 in 10.0 mi South 3.5 mph - N/A   Clear
9:53 PM 79.0 °F - 71.1 °F 77% 29.87 in 10.0 mi Calm Calm - N/A   Clear
10:53 PM 78.1 °F - 71.1 °F 79% 29.85 in 10.0 mi South 3.5 mph - N/A   Clear
11:53 PM 77.0 °F - 71.1 °F 82% 29.85 in 10.0 mi Variable 3.5 mph - N/A   Mostly Cloudy